﻿測定場所 (Monitoring sites),日付 (Measurement date),時間 (Measurement time),線量率 最大値 (max) μGy/h,線量率 最小値 (min) μGy/h,線量率 平均値 (average) μGy/h,
大田 (Ota),2015-07-05,23:01～24:00,0.0423,0.0362,0.0388,
大田 (Ota),2015-07-05,22:01～23:00,0.0412,0.0362,0.0389,
大田 (Ota),2015-07-05,21:01～22:00,0.0429,0.0365,0.0389,
大田 (Ota),2015-07-05,20:01～21:00,0.0421,0.0362,0.0391,
大田 (Ota),2015-07-05,19:01～20:00,0.0413,0.0361,0.0385,
大田 (Ota),2015-07-05,18:01～19:00,0.0426,0.0365,0.0392,
大田 (Ota),2015-07-05,17:01～18:00,0.0458,0.0367,0.0394,
大田 (Ota),2015-07-05,16:01～17:00,0.0462,0.0372,0.0415,
大田 (Ota),2015-07-05,15:01～16:00,0.0443,0.0380,0.0412,
大田 (Ota),2015-07-05,14:01～15:00,0.0470,0.0396,0.0434,
大田 (Ota),2015-07-05,13:01～14:00,0.0447,0.0365,0.0410,
大田 (Ota),2015-07-05,12:01～13:00,0.0438,0.0369,0.0405,
大田 (Ota),2015-07-05,11:01～12:00,0.0472,0.0394,0.0429,
大田 (Ota),2015-07-05,10:01～11:00,0.0492,0.0415,0.0443,
大田 (Ota),2015-07-05,09:01～10:00,0.0475,0.0410,0.0435,
大田 (Ota),2015-07-05,08:01～09:00,0.0477,0.0392,0.0432,
大田 (Ota),2015-07-05,07:01～08:00,0.0470,0.0394,0.0434,
大田 (Ota),2015-07-05,06:01～07:00,0.0478,0.0414,0.0444,
大田 (Ota),2015-07-05,05:01～06:00,0.0468,0.0400,0.0429,
大田 (Ota),2015-07-05,04:01～05:00,0.0469,0.0398,0.0435,
大田 (Ota),2015-07-05,03:01～04:00,0.0473,0.0405,0.0432,
大田 (Ota),2015-07-05,02:01～03:00,0.0460,0.0389,0.0428,
大田 (Ota),2015-07-05,01:01～02:00,0.0451,0.0399,0.0426,
大田 (Ota),2015-07-05,00:01～01:00,0.0455,0.0395,0.0424,
大田 (Ota),2015-07-04,23:01～24:00,0.0446,0.0368,0.0417,
大田 (Ota),2015-07-04,22:01～23:00,0.0428,0.0373,0.0406,
大田 (Ota),2015-07-04,21:01～22:00,0.0436,0.0370,0.0397,
大田 (Ota),2015-07-04,20:01～21:00,0.0431,0.0362,0.0393,
大田 (Ota),2015-07-04,19:01～20:00,0.0425,0.0363,0.0394,
大田 (Ota),2015-07-04,18:01～19:00,0.0436,0.0370,0.0401,
大田 (Ota),2015-07-04,17:01～18:00,0.0420,0.0369,0.0400,
大田 (Ota),2015-07-04,16:01～17:00,0.0439,0.0366,0.0401,
大田 (Ota),2015-07-04,15:01～16:00,0.0429,0.0371,0.0400,
大田 (Ota),2015-07-04,14:01～15:00,0.0426,0.0360,0.0388,
大田 (Ota),2015-07-04,13:01～14:00,0.0426,0.0364,0.0387,
大田 (Ota),2015-07-04,12:01～13:00,0.0425,0.0360,0.0388,
大田 (Ota),2015-07-04,11:01～12:00,0.0416,0.0367,0.0390,
大田 (Ota),2015-07-04,10:01～11:00,0.0409,0.0360,0.0387,
大田 (Ota),2015-07-04,09:01～10:00,0.0436,0.0360,0.0392,
大田 (Ota),2015-07-04,08:01～09:00,0.0429,0.0363,0.0394,
大田 (Ota),2015-07-04,07:01～08:00,0.0451,0.0361,0.0397,
大田 (Ota),2015-07-04,06:01～07:00,0.0432,0.0374,0.0398,
大田 (Ota),2015-07-04,05:01～06:00,0.0435,0.0374,0.0404,
大田 (Ota),2015-07-04,04:01～05:00,0.0458,0.0386,0.0418,
大田 (Ota),2015-07-04,03:01～04:00,0.0455,0.0361,0.0401,
大田 (Ota),2015-07-04,02:01～03:00,0.0431,0.0359,0.0390,
大田 (Ota),2015-07-04,01:01～02:00,0.0441,0.0369,0.0396,
大田 (Ota),2015-07-04,00:01～01:00,0.0514,0.0394,0.0442,
大田 (Ota),2015-07-03,23:01～24:00,0.0538,0.0448,0.0482,
大田 (Ota),2015-07-03,22:01～23:00,0.0539,0.0455,0.0492,
大田 (Ota),2015-07-03,21:01～22:00,0.0491,0.0379,0.0419,
大田 (Ota),2015-07-03,20:01～21:00,0.0427,0.0364,0.0391,
大田 (Ota),2015-07-03,19:01～20:00,0.0441,0.0364,0.0399,
大田 (Ota),2015-07-03,18:01～19:00,0.0428,0.0364,0.0397,
大田 (Ota),2015-07-03,17:01～18:00,0.0415,0.0366,0.0386,
大田 (Ota),2015-07-03,16:01～17:00,0.0417,0.0360,0.0394,
大田 (Ota),2015-07-03,15:01～16:00,0.0478,0.0377,0.0418,
大田 (Ota),2015-07-03,14:01～15:00,0.0490,0.0395,0.0459,
大田 (Ota),2015-07-03,13:01～14:00,0.0569,0.0442,0.0518,
大田 (Ota),2015-07-03,12:01～13:00,0.0618,0.0499,0.0570,
大田 (Ota),2015-07-03,11:01～12:00,0.0588,0.0496,0.0548,
大田 (Ota),2015-07-03,10:01～11:00,0.0592,0.0495,0.0546,
大田 (Ota),2015-07-03,09:01～10:00,0.0568,0.0436,0.0488,
大田 (Ota),2015-07-03,08:01～09:00,0.0479,0.0406,0.0444,
大田 (Ota),2015-07-03,07:01～08:00,0.0453,0.0383,0.0420,
大田 (Ota),2015-07-03,06:01～07:00,0.0463,0.0397,0.0428,
大田 (Ota),2015-07-03,05:01～06:00,0.0475,0.0412,0.0443,
大田 (Ota),2015-07-03,04:01～05:00,0.0472,0.0402,0.0433,
大田 (Ota),2015-07-03,03:01～04:00,0.0458,0.0379,0.0411,
大田 (Ota),2015-07-03,02:01～03:00,0.0443,0.0365,0.0404,
大田 (Ota),2015-07-03,01:01～02:00,0.0444,0.0370,0.0406,
大田 (Ota),2015-07-03,00:01～01:00,0.0451,0.0377,0.0417,
大田 (Ota),2015-07-02,23:01～24:00,0.0442,0.0369,0.0403,
大田 (Ota),2015-07-02,22:01～23:00,0.0424,0.0367,0.0395,
大田 (Ota),2015-07-02,21:01～22:00,0.0428,0.0353,0.0395,
大田 (Ota),2015-07-02,20:01～21:00,0.0427,0.0364,0.0395,
大田 (Ota),2015-07-02,19:01～20:00,0.0427,0.0363,0.0394,
大田 (Ota),2015-07-02,18:01～19:00,0.0423,0.0367,0.0394,
大田 (Ota),2015-07-02,17:01～18:00,0.0425,0.0369,0.0398,
大田 (Ota),2015-07-02,16:01～17:00,0.0424,0.0361,0.0393,
大田 (Ota),2015-07-02,15:01～16:00,0.0424,0.0365,0.0394,
大田 (Ota),2015-07-02,14:01～15:00,0.0424,0.0363,0.0394,
大田 (Ota),2015-07-02,13:01～14:00,0.0443,0.0372,0.0406,
大田 (Ota),2015-07-02,12:01～13:00,0.0501,0.0394,0.0442,
大田 (Ota),2015-07-02,11:01～12:00,0.0632,0.0461,0.0550,
大田 (Ota),2015-07-02,10:01～11:00,0.0669,0.0530,0.0594,
大田 (Ota),2015-07-02,09:01～10:00,0.0577,0.0405,0.0479,
大田 (Ota),2015-07-02,08:01～09:00,0.0456,0.0362,0.0404,
大田 (Ota),2015-07-02,07:01～08:00,0.0429,0.0367,0.0397,
大田 (Ota),2015-07-02,06:01～07:00,0.0423,0.0365,0.0391,
大田 (Ota),2015-07-02,05:01～06:00,0.0447,0.0365,0.0400,
大田 (Ota),2015-07-02,04:01～05:00,0.0434,0.0363,0.0397,
大田 (Ota),2015-07-02,03:01～04:00,0.0428,0.0366,0.0399,
大田 (Ota),2015-07-02,02:01～03:00,0.0423,0.0372,0.0394,
大田 (Ota),2015-07-02,01:01～02:00,0.0424,0.0363,0.0390,
大田 (Ota),2015-07-02,00:01～01:00,0.0425,0.0369,0.0394,
大田 (Ota),2015-07-01,23:01～24:00,0.0420,0.0363,0.0393,
大田 (Ota),2015-07-01,22:01～23:00,0.0421,0.0364,0.0391,
大田 (Ota),2015-07-01,21:01～22:00,0.0424,0.0366,0.0392,
大田 (Ota),2015-07-01,20:01～21:00,0.0435,0.0368,0.0396,
大田 (Ota),2015-07-01,19:01～20:00,0.0437,0.0365,0.0394,
大田 (Ota),2015-07-01,18:01～19:00,0.0439,0.0367,0.0399,
大田 (Ota),2015-07-01,17:01～18:00,0.0457,0.0373,0.0417,
大田 (Ota),2015-07-01,16:01～17:00,0.0495,0.0419,0.0453,
大田 (Ota),2015-07-01,15:01～16:00,0.0513,0.0412,0.0464,
大田 (Ota),2015-07-01,14:01～15:00,0.0508,0.0398,0.0449,
大田 (Ota),2015-07-01,13:01～14:00,0.0439,0.0377,0.0412,
大田 (Ota),2015-07-01,12:01～13:00,0.0472,0.0393,0.0435,
大田 (Ota),2015-07-01,11:01～12:00,0.0557,0.0450,0.0495,
大田 (Ota),2015-07-01,10:01～11:00,0.0636,0.0542,0.0586,
大田 (Ota),2015-07-01,09:01～10:00,0.0606,0.0483,0.0537,
大田 (Ota),2015-07-01,08:01～09:00,0.0560,0.0450,0.0500,
大田 (Ota),2015-07-01,07:01～08:00,0.0547,0.0459,0.0500,
大田 (Ota),2015-07-01,06:01～07:00,0.0564,0.0448,0.0492,
大田 (Ota),2015-07-01,05:01～06:00,0.0521,0.0443,0.0476,
大田 (Ota),2015-07-01,04:01～05:00,0.0541,0.0458,0.0503,
大田 (Ota),2015-07-01,03:01～04:00,0.0565,0.0488,0.0525,
大田 (Ota),2015-07-01,02:01～03:00,0.0567,0.0462,0.0523,
大田 (Ota),2015-07-01,01:01～02:00,0.0498,0.0418,0.0456,
大田 (Ota),2015-07-01,00:01～01:00,0.0542,0.0453,0.0496,
大田 (Ota),2015-06-30,23:01～24:00,0.0550,0.0478,0.0509,
大田 (Ota),2015-06-30,22:01～23:00,0.0513,0.0410,0.0460,
大田 (Ota),2015-06-30,21:01～22:00,0.0453,0.0395,0.0420,
大田 (Ota),2015-06-30,20:01～21:00,0.0434,0.0366,0.0400,
大田 (Ota),2015-06-30,19:01～20:00,0.0430,0.0366,0.0398,
大田 (Ota),2015-06-30,18:01～19:00,0.0439,0.0368,0.0398,
大田 (Ota),2015-06-30,17:01～18:00,0.0435,0.0364,0.0397,
大田 (Ota),2015-06-30,16:01～17:00,0.0432,0.0370,0.0400,
大田 (Ota),2015-06-30,15:01～16:00,0.0431,0.0366,0.0402,
大田 (Ota),2015-06-30,14:01～15:00,0.0440,0.0363,0.0399,
大田 (Ota),2015-06-30,13:01～14:00,0.0428,0.0369,0.0400,
大田 (Ota),2015-06-30,12:01～13:00,0.0436,0.0366,0.0395,
大田 (Ota),2015-06-30,11:01～12:00,0.0434,0.0363,0.0398,
大田 (Ota),2015-06-30,10:01～11:00,0.0429,0.0364,0.0398,
大田 (Ota),2015-06-30,09:01～10:00,0.0425,0.0367,0.0394,
大田 (Ota),2015-06-30,08:01～09:00,0.0433,0.0368,0.0400,
大田 (Ota),2015-06-30,07:01～08:00,0.0429,0.0372,0.0399,
大田 (Ota),2015-06-30,06:01～07:00,0.0448,0.0367,0.0398,
大田 (Ota),2015-06-30,05:01～06:00,0.0427,0.0371,0.0396,
大田 (Ota),2015-06-30,04:01～05:00,0.0420,0.0370,0.0396,
大田 (Ota),2015-06-30,03:01～04:00,0.0426,0.0370,0.0395,
大田 (Ota),2015-06-30,02:01～03:00,0.0433,0.0367,0.0396,
大田 (Ota),2015-06-30,01:01～02:00,0.0427,0.0363,0.0399,
大田 (Ota),2015-06-30,00:01～01:00,0.0428,0.0369,0.0396,
大田 (Ota),2015-06-29,23:01～24:00,0.0428,0.0365,0.0396,
大田 (Ota),2015-06-29,22:01～23:00,0.0447,0.0369,0.0395,
大田 (Ota),2015-06-29,21:01～22:00,0.0421,0.0365,0.0395,
大田 (Ota),2015-06-29,20:01～21:00,0.0435,0.0367,0.0398,
大田 (Ota),2015-06-29,19:01～20:00,0.0431,0.0370,0.0396,
大田 (Ota),2015-06-29,18:01～19:00,0.0435,0.0366,0.0396,
大田 (Ota),2015-06-29,17:01～18:00,0.0426,0.0375,0.0398,
大田 (Ota),2015-06-29,16:01～17:00,0.0432,0.0370,0.0400,
大田 (Ota),2015-06-29,15:01～16:00,0.0423,0.0362,0.0394,
大田 (Ota),2015-06-29,14:01～15:00,0.0420,0.0365,0.0396,
大田 (Ota),2015-06-29,13:01～14:00,0.0429,0.0373,0.0397,
大田 (Ota),2015-06-29,12:01～13:00,0.0427,0.0366,0.0399,
大田 (Ota),2015-06-29,11:01～12:00,0.0432,0.0364,0.0394,
大田 (Ota),2015-06-29,10:01～11:00,0.0437,0.0364,0.0396,
大田 (Ota),2015-06-29,09:01～10:00,0.0428,0.0361,0.0394,
大田 (Ota),2015-06-29,08:01～09:00,0.0417,0.0361,0.0392,
大田 (Ota),2015-06-29,07:01～08:00,0.0414,0.0367,0.0392,
大田 (Ota),2015-06-29,06:01～07:00,0.0440,0.0362,0.0392,
大田 (Ota),2015-06-29,05:01～06:00,0.0421,0.0365,0.0389,
大田 (Ota),2015-06-29,04:01～05:00,0.0429,0.0358,0.0387,
大田 (Ota),2015-06-29,03:01～04:00,0.0427,0.0361,0.0388,
大田 (Ota),2015-06-29,02:01～03:00,0.0426,0.0364,0.0392,
大田 (Ota),2015-06-29,01:01～02:00,0.0419,0.0362,0.0390,
大田 (Ota),2015-06-29,00:01～01:00,0.0437,0.0364,0.0392,
